{"data":{"norad_id":68625,"intl_designator":"2026-073Z","name":"STARLINK-37249","alt_names":[],"object_type":"PAYLOAD","status":"ACTIVE","operator":null,"country":"US","launch_date":"2026-04-07","launch_site_code":"AFWTR","launch_vehicle":null,"mission":null,"orbit_class":"UNKNOWN","rcs_meters":null,"size_class":null,"mass_kg":null,"dimensions":null,"purposes":["comms"],"wikipedia_slug":null,"has_3d_model":false,"image_url":null,"decayed_at":null,"tle_current":{"epoch":"2026-09-19T23:32:37.042656Z","epoch_age_seconds":88854,"freshness":"FRESH","line1":"1 68625U 26073Z   26262.98098429  .00013990  00000+0  43482-3 0  9997","line2":"2 68625  97.2856 101.0442 0002113  78.3212 281.8268 15.33445909 25665","mean_motion":15.33445909,"eccentricity":0.0002113,"inclination_deg":97.2856,"raan_deg":101.0442,"arg_perigee_deg":78.3212,"mean_anomaly_deg":281.8268,"bstar":0.00043482,"rev_number":2566,"period_min":93.906148990874,"perigee_km":464.09440088561,"apogee_km":466.9865389844,"semimajor_km":6843.677469935,"source":"CELESTRAK","updated_at":"2026-09-20T09:00:43.948430Z"}}}